Location: Newark
(50.4915°N, 30.7416°E)
Time: 22:39:42
(UTC+00:00)

ISS - Visible Passes

Search period start: 05 December 2019 00:00
Search period end: 15 December 2019 00:00
Orbit: 412 x 421 km, 51.6° (Epoch: 05 December)

Date Brightness Start Highest point End Pass type
(mag) Time Alt. Az. Time Alt. Az. Time Alt. Az.
05 Dec -3.8 15:04:43 10° WNW 15:08:05 77° N 15:10:39 16° E visible
05 Dec -1.8 16:41:32 10° W 16:43:34 29° WSW 16:43:34 29° WSW visible
06 Dec -3.3 15:53:01 10° WNW 15:56:20 58° SSW 15:57:17 39° SE visible
07 Dec -3.6 15:04:32 10° WNW 15:07:53 76° SSW 15:11:08 11° ESE visible
07 Dec -1.4 16:41:38 10° W 16:44:03 21° SW 16:44:03 21° SW visible
08 Dec -2.0 15:52:56 10° W 15:55:56 30° SSW 15:58:05 16° SSE visible
09 Dec -2.6 15:04:20 10° W 15:07:33 43° SSW 15:10:45 10° SE visible
10 Dec -0.8 15:53:17 10° WSW 15:55:20 15° SW 15:57:24 10° S visible
11 Dec -1.2 15:04:19 10° W 15:07:01 22° SW 15:09:42 10° SSE visible
13 Dec -0.1 15:05:27 10° WSW 15:06:16 11° SW 15:07:06 10° SSW visible
